GW6147 Weather Reports


time (UTC)temp
F
wind
direction
speed
knots
gust
knots
rain 1hr
in
rain 24hr
in
rain mn
in
humidity
%
barometer
mb
20260502194025 65 0.0 0.0 0.00 0.00 0.00 32 1014.1
20260502193518 65 0.0 0.0 0.00 0.00 0.00 33 1014.2
20260502193011 64 0.0 0.0 0.00 0.00 0.00 32 1014.4
20260502192503 64 0.0 0.0 0.00 0.00 0.00 33 1014.4
20260502191955 63 0.0 0.0 0.00 0.00 0.00 29 1014.4
20260502191447 63 0.0 0.0 0.00 0.00 0.00 31 1014.6
20260502190939 64 0.0 0.0 0.00 0.00 0.00 32 1014.4
20260502190432 62 0.0 0.0 0.00 0.00 0.00 31 1014.6
20260502185925 61 0.0 0.0 0.00 0.00 0.00 28 1014.7
20260502185418 62 0.0 0.0 0.00 0.00 0.00 30 1014.8
20260502184911 62 0.0 0.0 0.00 0.00 0.00 33 1014.8
20260502184400 63 0.0 0.0 0.00 0.00 0.00 32 1014.7
20260502183852 62 0.0 0.0 0.00 0.00 0.00 32 1015.0
20260502183344 61 0.0 0.0 0.00 0.00 0.00 29 1014.8
20260502182837 61 0.0 0.0 0.00 0.00 0.00 31 1015.2
20260502182330 61 0.0 0.0 0.00 0.00 0.00 31 1015.5
20260502181823 62 0.0 0.0 0.00 0.00 0.00 32 1015.5
20260502181311 62 0.0 0.0 0.00 0.00 0.00 33 1015.5
20260502180803 61 0.0 0.0 0.00 0.00 0.00 34 1015.6
20260502180252 60 0.0 0.0 0.00 0.00 0.00 32 1015.9
20260502170114 58 0.0 0.0 0.00 0.00 0.00 31 1016.7
20260502164035 56 0.0 0.0 0.00 0.00 0.00 31 1017.2
20260502163527 56 0.0 0.0 0.00 0.00 0.00 30 1017.2
20260502163020 56 0.0 0.0 0.00 0.00 0.00 31 1017.1
20260502162508 55 0.0 0.0 0.00 0.00 0.00 32 1017.2
20260502162000 56 0.0 0.0 0.00 0.00 0.00 32 1017.5
20260502161451 56 0.0 0.0 0.00 0.00 0.00 35 1017.5
20260502160942 56 0.0 0.0 0.00 0.00 0.00 34 1017.4
20260502160434 55 0.0 0.0 0.00 0.00 0.00 35 1017.5
20260502152328 54 0.0 0.0 0.00 0.00 0.00 37 1017.8
20260502151822 53 0.0 0.0 0.00 0.00 0.00 36 1017.9
20260502151314 53 0.0 0.0 0.00 0.00 0.00 38 1017.9
20260502150807 53 0.0 0.0 0.00 0.00 0.00 39 1017.9
20260502150300 53 0.0 0.0 0.00 0.00 0.00 39 1018.2
20260502140124 49 0.0 0.0 0.00 0.00 0.00 57 1018.4
20260502130452 41 0.0 0.0 0.00 0.00 0.00 79 1018.7
20260502123409 37 0.0 0.0 0.00 0.00 0.00 85 1018.7
20260502122901 36 0.0 0.0 0.00 0.00 0.00 86 1018.6
20260502122353 35 0.0 0.0 0.00 0.00 0.00 87 1018.8
20260502121846 34 0.0 0.0 0.00 0.00 0.00 87 1018.7
20260502121339 34 0.0 0.0 0.00 0.00 0.00 88 1018.5
20260502120831 33 0.0 0.0 0.00 0.00 0.00 87 1018.6
20260502120323 33 0.0 0.0 0.00 0.00 0.00 87 1018.6
20260502115812 32 0.0 0.0 0.00 0.00 0.00 87 1018.7
20260502115142 32 0.0 0.0 0.00 0.00 0.00 87 1018.7
20260502114634 31 0.0 0.0 0.00 0.00 0.00 87 1018.8
20260502114126 32 0.0 0.0 0.00 0.00 0.00 87 1018.8
20260502113619 31 0.0 0.0 0.00 0.00 0.00 86 1018.8
20260502113112 31 0.0 0.0 0.00 0.00 0.00 86 1018.7
20260502112604 31 0.0 0.0 0.00 0.00 0.00 86 1018.5
20260502112058 31 0.0 0.0 0.00 0.00 0.00 86 1018.5
20260502111545 31 0.0 0.0 0.00 0.00 0.00 86 1018.4
20260502111037 31 0.0 0.0 0.00 0.00 0.00 86 1018.3
20260502110530 31 0.0 0.0 0.00 0.00 0.00 86 1018.2
20260502110021 31 0.0 0.0 0.00 0.00 0.00 86 1018.5
20260502105515 31 0.0 0.0 0.00 0.00 0.00 86 1018.4
20260502105007 31 0.0 0.0 0.00 0.00 0.00 85 1018.4
20260502104500 32 0.0 0.0 0.00 0.00 0.00 85 1018.3
20260502103953 32 0.0 0.0 0.00 0.00 0.00 85 1018.3
20260502103445 32 0.0 0.0 0.00 0.00 0.00 85 1018.6
20260502102938 32 0.0 0.0 0.00 0.00 0.00 86 1018.3
20260502102432 32 0.0 0.0 0.00 0.00 0.00 86 1018.3
20260502101924 32 0.0 0.0 0.00 0.00 0.00 86 1018.3
20260502101417 32 0.0 0.0 0.00 0.00 0.00 87 1018.2
20260502100911 32 0.0 0.0 0.00 0.00 0.00 85 1018.1
20260502100404 32 0.0 0.0 0.00 0.00 0.00 85 1018.0
20260502091247 33 0.0 0.0 0.00 0.00 0.00 83 1018.3
20260502090741 33 0.0 0.0 0.00 0.00 0.00 82 1018.1
20260502090232 33 0.0 0.0 0.00 0.00 0.00 82 1018.2
20260502080106 33 0.0 0.0 0.00 0.00 0.00 80 1018.4
20260502071457 34 0.0 0.0 0.00 0.00 0.00 77 1018.6
20260502070950 34 0.0 0.0 0.00 0.00 0.00 77 1018.8
20260502070443 34 0.0 0.0 0.00 0.00 0.00 76 1018.4
20260502065936 34 0.0 0.0 0.00 0.00 0.00 76 1018.6
20260502065428 34 0.0 0.0 0.00 0.00 0.00 76 1018.3
20260502064922 34 0.0 0.0 0.00 0.00 0.00 76 1018.5
20260502064415 34 0.0 0.0 0.00 0.00 0.00 76 1018.4
20260502063909 35 0.0 0.0 0.00 0.00 0.00 76 1018.5
20260502063402 35 0.0 0.0 0.00 0.00 0.00 75 1018.9
20260502062855 35 0.0 0.0 0.00 0.00 0.00 75 1018.4
20260502062347 35 0.0 0.0 0.00 0.00 0.00 74 1018.5
20260502061840 35 0.0 0.0 0.00 0.00 0.00 74 1018.8
20260502061333 35 0.0 0.0 0.00 0.00 0.00 73 1018.6
20260502060827 35 0.0 0.0 0.00 0.00 0.00 73 1018.7
20260502060320 35 0.0 0.0 0.00 0.00 0.00 74 1018.8
20260502055809 35 0.0 0.0 0.00 0.00 0.00 72 1019.0
20260502055305 35 0.0 0.0 0.00 0.00 0.00 72 1018.8
20260502054755 35 0.0 0.0 0.00 0.00 0.00 71 1018.6
20260502054247 35 0.0 0.0 0.00 0.00 0.00 71 1018.7
20260502053740 36 0.0 0.0 0.00 0.00 0.00 70 1018.7
20260502053233 36 0.0 0.0 0.00 0.00 0.00 70 1018.7
20260502052726 36 0.0 0.0 0.00 0.00 0.00 69 1018.7
20260502052214 36 0.0 0.0 0.00 0.00 0.00 69 1018.6
20260502051707 36 0.0 0.0 0.00 0.00 0.00 68 1018.5
20260502051200 36 0.0 0.0 0.00 0.00 0.00 68 1018.6
20260502050652 36 0.0 0.0 0.00 0.00 0.00 67 1018.8
20260502050145 37 0.0 0.0 0.00 0.00 0.00 67 1018.5
20260502045638 37 0.0 0.0 0.00 0.00 0.00 66 1018.3
20260502045130 37 0.0 0.0 0.00 0.00 0.00 66 1018.8
20260502044624 37 0.0 0.0 0.00 0.00 0.00 65 1018.6
20260502044116 37 0.0 0.0 0.00 0.00 0.00 65 1018.4
20260502043609 37 0.0 0.0 0.00 0.00 0.00 64 1018.4
20260502043102 38 0.0 0.0 0.00 0.00 0.00 63 1018.5
20260502042550 38 0.0 0.0 0.00 0.00 0.00 63 1018.3
20260502042042 38 0.0 0.0 0.00 0.00 0.00 62 1018.3
20260502041535 38 0.0 0.0 0.00 0.00 0.00 62 1018.3
20260502041028 38 0.0 0.0 0.00 0.00 0.00 62 1018.6
20260502040520 38 0.0 0.0 0.00 0.00 0.00 61 1018.5
20260502040014 38 0.0 0.0 0.00 0.00 0.00 60 1018.2
20260502035506 38 0.0 0.0 0.00 0.00 0.00 60 1018.5
20260502034959 39 0.0 0.0 0.00 0.00 0.00 59 1018.4
20260502034452 39 0.0 0.0 0.00 0.00 0.00 59 1018.6
20260502033946 39 0.0 0.0 0.00 0.00 0.00 59 1018.5
20260502033438 39 0.0 0.0 0.00 0.00 0.00 59 1018.6
20260502032931 40 0.0 0.0 0.00 0.00 0.00 58 1018.5
20260502032424 40 0.0 0.0 0.00 0.00 0.00 57 1018.7
20260502031916 40 0.0 0.0 0.00 0.00 0.00 57 1018.6
20260502031405 41 0.0 0.0 0.00 0.00 0.00 57 1018.7
20260502030858 41 0.0 0.0 0.00 0.00 0.00 56 1018.7
20260502030346 41 0.0 0.0 0.00 0.00 0.00 55 1018.8
20260502025837 41 0.0 0.0 0.00 0.00 0.00 54 1018.8
20260502025330 42 0.0 0.0 0.00 0.00 0.00 53 1018.5
20260502024821 42 0.0 0.0 0.00 0.00 0.00 53 1018.8
20260502024314 42 0.0 0.0 0.00 0.00 0.00 52 1018.3
20260502023807 43 0.0 0.0 0.00 0.00 0.00 52 1018.1
20260502023300 43 0.0 0.0 0.00 0.00 0.00 51 1018.3
20260502022753 43 0.0 0.0 0.00 0.00 0.00 51 1018.5
20260502022246 44 0.0 0.0 0.00 0.00 0.00 50 1018.4
20260502021739 44 0.0 0.0 0.00 0.00 0.00 49 1018.3
20260502021228 45 0.0 0.0 0.00 0.00 0.00 48 1018.2
20260502020716 45 0.0 0.0 0.00 0.00 0.00 49 1018.2
20260502020208 45 0.0 0.0 0.00 0.00 0.00 48 1018.3
20260502015701 46 0.0 0.0 0.00 0.00 0.00 48 1018.3
20260502015153 46 0.0 0.0 0.00 0.00 0.00 47 1018.0
20260502014644 46 0.0 0.0 0.00 0.00 0.00 47 1018.3
20260502014137 47 0.0 0.0 0.00 0.00 0.00 48 1017.8
20260502013630 47 0.0 0.0 0.00 0.00 0.00 44 1017.8
20260502013109 48 0.0 0.0 0.00 0.00 0.00 42 1017.7
20260502012602 48 0.0 0.0 0.00 0.00 0.00 42 1017.8
20260502012055 48 0.0 0.0 0.00 0.00 0.00 41 1017.4
20260502011543 49 0.0 0.0 0.00 0.00 0.00 41 1017.7
20260502010851 49 0.0 0.0 0.00 0.00 0.00 41 1017.7
20260502010339 49 0.0 0.0 0.00 0.00 0.00 40 1017.8
20260502005832 49 0.0 0.0 0.00 0.00 0.00 40 1017.9
20260502005324 49 0.0 0.0 0.00 0.00 0.00 39 1017.6
20260502004817 50 0.0 0.0 0.00 0.00 0.00 39 1017.6
20260502004310 50 0.0 0.0 0.00 0.00 0.00 38 1017.8
20260502003758 50 0.0 0.0 0.00 0.00 0.00 38 1017.5
20260502003251 50 0.0 0.0 0.00 0.00 0.00 38 1017.4
20260502002743 50 0.0 0.0 0.00 0.00 0.00 37 1017.6
20260502002236 50 0.0 0.0 0.00 0.00 0.00 37 1017.8
20260502001723 50 0.0 0.0 0.00 0.00 0.00 38 1017.4
20260502001106 50 0.0 0.0 0.00 0.00 0.00 37 1017.4
20260502000555 50 0.0 0.0 0.00 0.00 0.00 38 1017.6
20260502000043 50 0.0 0.0 0.00 0.00 0.00 37 1017.6
20260501235536 50 0.0 0.0 0.00 0.00 0.00 37 1017.5
20260501235028 51 0.0 0.0 0.00 0.00 0.00 36 1017.5
20260501234521 51 0.0 0.0 0.00 0.00 0.00 35 1017.4
20260501234010 52 0.0 0.0 0.00 0.00 0.00 34 1017.4
20260501233503 53 0.0 0.0 0.00 0.00 0.00 34 1017.4
20260501232956 53 0.0 0.0 0.00 0.00 0.00 35 1017.4
20260501232449 52 0.0 0.0 0.00 0.00 0.00 34 1017.7
20260501231942 52 0.0 0.0 0.00 0.00 0.00 33 1017.5
20260501231433 51 0.0 0.0 0.00 0.00 0.00 33 1017.6
20260501230922 51 0.0 0.0 0.00 0.00 0.00 33 1017.5
20260501230402 52 0.0 0.0 0.00 0.00 0.00 32 1017.5
20260501225834 52 0.0 0.0 0.00 0.00 0.00 33 1017.4
20260501225327 53 0.0 0.0 0.00 0.00 0.00 33 1017.6
20260501224819 53 0.0 0.0 0.00 0.00 0.00 31 1017.7
20260501224312 53 0.0 0.0 0.00 0.00 0.00 30 1017.5
20260501223805 54 0.0 0.0 0.00 0.00 0.00 33 1017.7
20260501223257 54 0.0 0.0 0.00 0.00 0.00 31 1017.6
20260501222750 54 0.0 0.0 0.00 0.00 0.00 32 1017.6
20260501222242 53 0.0 0.0 0.00 0.00 0.00 32 1017.6
20260501221730 54 0.0 0.0 0.00 0.00 0.00 32 1017.5
20260501221222 54 0.0 0.0 0.00 0.00 0.00 33 1017.6
20260501220715 53 0.0 0.0 0.00 0.00 0.00 32 1017.4
20260501220208 53 0.0 0.0 0.00 0.00 0.00 31 1017.6
20260501215700 54 0.0 0.0 0.00 0.00 0.00 35 1017.6
20260501215151 52 0.0 0.0 0.00 0.00 0.00 33 1017.6
20260501214641 51 0.0 0.0 0.00 0.00 0.00 32 1017.4
20260501214134 51 0.0 0.0 0.00 0.00 0.00 32 1017.5
20260501213627 52 0.0 0.0 0.00 0.00 0.00 30 1017.7
20260501213120 53 0.0 0.0 0.00 0.00 0.00 31 1017.1
20260501212609 54 0.0 0.0 0.00 0.00 0.00 30 1017.3
20260501212102 53 0.0 0.0 0.00 0.00 0.00 32 1017.6
20260501211556 52 0.0 0.0 0.00 0.00 0.00 30 1017.7
20260501211049 52 0.0 0.0 0.00 0.00 0.00 33 1017.6
20260501210541 51 0.0 0.0 0.00 0.00 0.00 32 1017.6
20260501210034 51 0.0 0.0 0.00 0.00 0.00 33 1017.7
20260501205527 51 0.0 0.0 0.00 0.00 0.00 31 1017.8
20260501205017 53 0.0 0.0 0.00 0.00 0.00 31 1017.8
20260501204510 52 0.0 0.0 0.00 0.00 0.00 31 1017.5
20260501204003 54 0.0 0.0 0.00 0.00 0.00 31 1017.5
20260501203455 53 0.0 0.0 0.00 0.00 0.00 31 1017.7
20260501202949 53 0.0 0.0 0.00 0.00 0.00 32 1017.5
20260501202442 53 0.0 0.0 0.00 0.00 0.00 32 1017.5
20260501201932 53 0.0 0.0 0.00 0.00 0.00 33 1017.9
20260501201422 52 0.0 0.0 0.00 0.00 0.00 35 1017.9
20260501200911 53 0.0 0.0 0.00 0.00 0.00 32 1017.7
20260501200401 51 0.0 0.0 0.00 0.00 0.00 34 1017.8
20260501195854 52 0.0 0.0 0.00 0.00 0.00 33 1017.8
20260501195343 52 0.0 0.0 0.00 0.00 0.00 35 1018.0
20260501194834 52 0.0 0.0 0.00 0.00 0.00 33 1017.6
20260501194327 54 0.0 0.0 0.00 0.00 0.00 34 1017.8